GPS BIIR-08 1 27663U 03005A 26163.16289531 .00000084 00000+0 00000+0 0 9995 2 27663 54.8829 215.1687 0147930 53.0708 338.9785 2.00560784171216 GPS BIIR-11 1 28190U 04009A 26162.92611682 -.00000037 00000+0 00000+0 0 9994 2 28190 54.8343 275.8999 0115929 172.8401 201.5015 2.00554824162843 GPS BIIR-13 1 28474U 04045A 26162.34320756 -.00000066 00000+0 00000+0 0 9996 2 28474 55.1399 325.1314 0169872 316.2822 62.1293 2.00555552158315 GPS BIIR-14M 1 28874U 05038A 26162.93517096 -.00000034 00000+0 00000+0 0 9998 2 28874 54.8825 273.3896 0127828 296.1108 113.2045 2.00565961151733 METEOSAT-9 (MSG-2) 1 28912U 05049B 26162.84606965 .00000133 00000+0 00000+0 0 9996 2 28912 9.3488 54.2186 0001583 346.4858 209.7216 1.00269859 6943 GPS BIIR-16M 1 29601U 06052A 26161.93672684 .00000078 00000+0 00000+0 0 9995 2 29601 54.9356 214.2541 0085247 90.7995 270.2610 2.00557843143286 GPS BIIR-17M 1 32260U 07047A 26163.23882086 -.00000037 00000+0 00000+0 0 9995 2 32260 54.0917 80.2696 0166590 87.2801 274.6185 2.00555387136711 GPS BIIR-18M 1 32384U 07062A 26162.00193079 -.00000038 00000+0 00000+0 0 9991 2 32384 55.0367 274.4015 0035635 165.0205 149.1612 2.00559715135380 GOES 14 1 35491U 09033A 26163.29340598 -.00000257 00000+0 00000+0 0 9998 2 35491 1.6767 83.0988 0001768 8.9294 58.8696 1.00112438 6548 GOES 15 1 36411U 10008A 26163.20650184 .00000033 00000+0 00000+0 0 9992 2 36411 1.2635 82.9363 0005396 41.0669 274.5321 1.00275528 59585 GSAT0101 (GALILEO-PFM) 1 37846U 11060A 26160.80941627 -.00000062 00000+0 00000+0 0 9995 2 37846 56.9968 341.9613 0003215 49.6311 310.4133 1.70475644 90995 GSAT0102 (GALILEO-FM2) 1 37847U 11060B 26158.40220003 -.00000063 00000+0 00000+0 0 9998 2 37847 57.0009 342.0270 0003434 13.7700 354.5257 1.70476015 90968 LUCH 5A 1 37951U 11074B 26163.51177001 -.00000042 00000+0 00000+0 0 9993 2 37951 8.7416 73.8760 0002184 22.9645 155.2063 1.00269773 53002 METEOSAT-10 (MSG-3) 1 38552U 12035B 26163.05099341 .00000008 00000+0 00000+0 0 9999 2 38552 4.6588 61.0401 0001452 330.4387 247.5373 1.00276007 50805 SARSAT 13 (METOP-B) 1 38771U 12049A 26163.89575281 .00000095 00000+0 63386-4 0 9998 2 38771 98.6505 215.4804 0002496 30.0317 330.1003 14.21431594712655 GPS BIIF-3 1 38833U 12053A 26162.33343058 .00000092 00000+0 00000+0 0 9991 2 38833 53.5848 143.8391 0179946 65.6739 296.1889 2.00567339 99322 GSAT0103 (GALILEO-FM3) 1 38857U 12055A 26162.02314896 .00000014 00000+0 00000+0 0 9997 2 38857 55.8029 101.7147 0004991 304.7651 55.1525 1.70473353 84909 GPS BIIF-4 1 39166U 13023A 26163.19736196 -.00000026 00000+0 00000+0 0 9991 2 39166 54.5081 269.1770 0141562 51.0276 310.2429 2.00563421 95785 INSAT-3D 1 39216U 13038B 26163.29045931 -.00000324 00000+0 00000+0 0 9995 2 39216 1.9128 82.5990 0000607 311.1154 100.9997 1.00271554 47030 GPS BIIF-5 1 39533U 14008A 26163.19898529 .00000091 00000+0 00000+0 0 9993 2 39533 53.6538 149.5231 0084241 231.2032 128.0417 2.00559413 89584 LUCH 5V 1 39727U 14023A 26163.78258718 -.00000259 00000+0 00000+0 0 9997 2 39727 5.1200 69.7880 0001912 42.3347 165.3673 1.00276421 44318 GPS BIIF-6 1 39741U 14026A 26162.97584424 -.00000066 00000+0 00000+0 0 9998 2 39741 56.5010 331.7203 0038211 326.6427 33.1203 2.00561273 88438 GPS BIIF-7 1 40105U 14045A 26163.06754285 -.00000023 00000+0 00000+0 0 9993 2 40105 55.3500 88.6689 0033078 118.3101 242.0091 2.00557996 85971 GSAT0201 (GALILEO 5) 1 40128U 14050A 26161.94910067 -.00000052 00000+0 00000+0 0 9993 2 40128 48.8825 273.6924 1673633 179.1491 181.2193 1.85519989 78203 GSAT0202 (GALILEO 6) 1 40129U 14050B 26160.58770951 -.00000052 00000+0 00000+0 0 9999 2 40129 48.9007 272.8335 1674676 179.8278 180.2807 1.85520607 80340 GPS BIIF-8 1 40294U 14068A 26162.93790373 -.00000062 00000+0 00000+0 0 9993 2 40294 56.9840 31.1570 0066941 70.3939 290.3843 2.00575784 85108 GLONASS-K 2 1 40315U 14075A 26163.13888137 .00000122 00000+0 00000+0 0 9990 2 40315 63.6160 190.5467 0022534 212.1869 147.7498 2.13101448 89746 GPS BIIF-9 1 40534U 15013A 26163.07642420 .00000097 00000+0 00000+0 0 9993 2 40534 53.1683 204.3890 0109399 40.1067 320.7833 2.00551644 81720 GSAT0203 (GALILEO 7) 1 40544U 15017A 26162.34701021 -.00000066 00000+0 00000+0 0 9997 2 40544 56.7895 341.7548 0002091 278.1581 81.8319 1.70476009 69105 GSAT0204 (GALILEO 8) 1 40545U 15017B 26162.60278512 -.00000067 00000+0 00000+0 0 9992 2 40545 56.7979 341.7663 0001892 248.9862 111.0068 1.70475611 32152 GPS BIIF-10 1 40730U 15033A 26163.23506952 -.00000023 00000+0 00000+0 0 9990 2 40730 53.9863 267.2908 0115051 30.2189 330.4612 2.00556451 79890 METEOSAT-11 (MSG-4) 1 40732U 15034A 26163.26670605 .00000078 00000+0 00000+0 0 9992 2 40732 3.1896 71.1389 0001744 8.2779 286.7213 1.00278811 7164 GSAT0205 (GALILEO 9) 1 40889U 15045A 26144.30399159 -.00000014 00000+0 00000+0 0 9994 2 40889 54.9357 222.4171 0006405 263.0112 96.9692 1.67409242 66562 GSAT0206 (GALILEO 10) 1 40890U 15045B 26162.59146578 .00000056 00000+0 00000+0 0 9997 2 40890 54.9462 221.7590 0001677 340.3003 19.7849 1.70473866 66948 GPS BIIF-11 1 41019U 15062A 26160.29992778 -.00000064 00000+0 00000+0 0 9996 2 41019 56.9540 31.1152 0111654 231.1327 127.9172 2.00566961 77677 ELEKTRO-L 2 1 41105U 15074A 26163.04804524 -.00000106 00000+0 00000+0 0 9999 2 41105 6.6796 70.5874 0000807 263.0780 289.5215 1.00271076 38455 GSAT0209 (GALILEO 12) 1 41174U 15079A 26162.75947448 .00000007 00000+0 00000+0 0 9999 2 41174 55.8242 101.4109 0005369 341.4474 18.4942 1.70473724 64688 GSAT0208 (GALILEO 11) 1 41175U 15079B 26160.63344479 .00000022 00000+0 00000+0 0 9997 2 41175 55.8212 101.4660 0004898 340.3551 19.5970 1.70473549 65069 GPS BIIF-12 1 41328U 16007A 26161.88615589 -.00000012 00000+0 00000+0 0 9990 2 41328 55.5202 89.7095 0096068 247.3778 111.5924 2.00551975 75711 GSAT0211 (GALILEO 14) 1 41549U 16030A 26163.10377624 .00000059 00000+0 00000+0 0 9993 2 41549 55.0966 221.8349 0002875 323.9201 36.1548 1.70473904 62580 GSAT0210 (GALILEO 13) 1 41550U 16030B 26162.77446182 .00000057 00000+0 00000+0 0 9991 2 41550 55.0962 221.8419 0003686 237.6945 122.3623 1.70473848 62571 INSAT-3DR 1 41752U 16054A 26163.19580737 -.00000061 00000+0 00000+0 0 9999 2 41752 0.0928 87.0939 0010592 186.9091 130.9983 1.00270623 35762 GSAT0207 (GALILEO 15) 1 41859U 16069A 26162.46612815 .00000009 00000+0 00000+0 0 9996 2 41859 55.4954 101.2445 0005363 328.8179 31.1130 1.70473579 59302 GSAT0212 (GALILEO 16) 1 41860U 16069B 26161.14639969 .00000018 00000+0 00000+0 0 9991 2 41860 55.4922 101.2762 0004678 355.7318 4.2331 1.70473868 59533 GSAT0213 (GALILEO 17) 1 41861U 16069C 26162.68680405 .00000007 00000+0 00000+0 0 9991 2 41861 55.4953 101.2414 0005060 311.8034 48.1151 1.70474158 59424 GSAT0214 (GALILEO 18) 1 41862U 16069D 26159.90009922 .00000024 00000+0 00000+0 0 9991 2 41862 55.4924 101.3112 0004328 318.2384 41.7019 1.70473875 59500 GOES 16 1 41866U 16071A 26163.24407800 -.00000075 00000+0 00000+0 0 9994 2 41866 0.3277 85.5604 0000260 298.9228 219.2798 1.00270156 35055 GSAT-17 1 42815U 17040B 26162.35637655 -.00000241 00000+0 00000+0 0 9995 2 42815 0.1114 88.0254 0001601 207.2283 186.2546 1.00270654 32730 GSAT0215 (GALILEO 19) 1 43055U 17079A 26160.97660892 .00000049 00000+0 00000+0 0 9994 2 43055 55.0750 221.7051 0003311 266.3689 93.6775 1.70474602 52866 GSAT0216 (GALILEO 20) 1 43056U 17079B 26161.26776505 .00000050 00000+0 00000+0 0 9999 2 43056 55.0753 221.6973 0003701 276.7573 83.2861 1.70474756 52885 GSAT0217 (GALILEO 21) 1 43057U 17079C 26162.66172748 .00000057 00000+0 00000+0 0 9991 2 43057 55.0734 221.6569 0004352 283.5415 76.5022 1.70474004 52891 GSAT0218 (GALILEO 22) 1 43058U 17079D 26162.29521692 .00000055 00000+0 00000+0 0 9995 2 43058 55.0734 221.6644 0004381 272.9557 87.0844 1.70474706 52918 GOES 17 1 43226U 18022A 26163.24711134 -.00000167 00000+0 00000+0 0 9994 2 43226 0.9240 85.7987 0000455 26.2240 148.0277 1.00270638 30377 GSAT0221 (GALILEO 25) 1 43564U 18060A 26161.61257961 -.00000063 00000+0 00000+0 0 9998 2 43564 57.1738 341.9578 0002678 307.2326 52.7584 1.70475913 49054 GSAT0222 (GALILEO 26) 1 43565U 18060B 26161.83222565 -.00000064 00000+0 00000+0 0 9996 2 43565 57.1762 341.9557 0001909 252.3571 107.6372 1.70475642 49107 GSAT0219 (GALILEO 23) 1 43566U 18060C 26161.46654166 -.00000063 00000+0 00000+0 0 9991 2 43566 57.1743 341.9669 0002195 328.4405 31.5620 1.70475904 49078 GSAT0220 (GALILEO 24) 1 43567U 18060D 26162.86068590 -.00000067 00000+0 00000+0 0 9991 2 43567 57.1774 341.9298 0002252 315.5047 44.4900 1.70475609 49081 BEIDOU-3 M13 1 43622U 18072A 26162.09235569 -.00000054 00000+0 00000+0 0 9999 2 43622 56.6193 62.8611 0007461 327.3083 32.6685 1.86231513 52543 BEIDOU-3 M14 1 43623U 18072B 26161.95779228 -.00000053 00000+0 00000+0 0 9998 2 43623 56.6207 62.8602 0006161 357.5003 2.5196 1.86231499 52538 GPS BIII-1 1 43873U 18109A 26162.78488541 -.00000014 00000+0 00000+0 0 9990 2 43873 55.6786 92.4003 0038177 198.0454 345.0218 2.00561303 54966 METEOR-M2 2 1 44387U 19038A 26163.88940985 -.00000186 00000+0 -60749-4 0 9992 2 44387 98.9139 151.1109 0002181 54.8911 305.2471 14.24363912360685 GPS BIII-2 1 44506U 19056A 26162.66223346 -.00000066 00000+0 00000+0 0 9990 2 44506 55.6400 331.3626 0061795 197.5682 160.4551 2.00569454 49955 BEIDOU-3 M24 1 44542U 19061A 26162.33598668 .00000129 00000+0 00000+0 0 9991 2 44542 54.3962 182.9254 0008267 358.9131 1.1499 1.86229258 45684 BEIDOU-3 M23 1 44543U 19061B 26162.73454990 .00000128 00000+0 00000+0 0 9994 2 44543 54.3946 182.8802 0005596 337.8055 201.1034 1.86227372 45691 BEIDOU-3 M22 1 44793U 19078A 26163.78655859 -.00000068 00000+0 00000+0 0 9996 2 44793 53.9404 299.9835 0006463 50.1011 309.9391 1.86227405 44564 BEIDOU-3 M21 1 44794U 19078B 26162.85257053 -.00000067 00000+0 00000+0 0 9997 2 44794 53.9144 299.9773 0004338 47.8578 312.1638 1.86227891 44555 ELEKTRO-L 3 1 44903U 19095A 26163.85019778 -.00000083 00000+0 00000+0 0 9997 2 44903 0.2444 81.5338 0001100 354.9364 206.7311 1.00271765 23666 GPS BIII-3 1 45854U 20041A 26162.56161249 -.00000063 00000+0 00000+0 0 9992 2 45854 56.6657 29.1622 0063604 204.6361 19.3768 2.00558626 43922 COSMOS 2547 1 46805U 20075A 26162.31350737 .00000121 00000+0 00000+0 0 9995 2 46805 64.5991 192.6716 0009249 239.6437 120.3411 2.13100304 43787 GPS BIII-4 1 46826U 20078A 26163.28792468 .00000090 00000+0 00000+0 0 9994 2 46826 53.9803 210.9777 0073389 207.1142 157.4901 2.00564740 41411 GSAT0223 (GALILEO 27) 1 49809U 21116A 26162.13215269 -.00000065 00000+0 00000+0 0 9997 2 49809 57.1623 341.8389 0001404 187.4451 176.2704 1.70475860 28084 GSAT0224 (GALILEO 28) 1 49810U 21116B 26162.53111727 -.00000066 00000+0 00000+0 0 9998 2 49810 57.1633 341.8270 0000988 155.4898 205.7028 1.70475859 28111 GOES 18 1 51850U 22021A 26163.66537671 .00000111 00000+0 00000+0 0 9996 2 51850 0.0460 146.1904 0000451 20.2436 197.0919 1.00271838 6544 COSMOS 2557 (706K) 1 52984U 22075A 26162.47782148 -.00000045 00000+0 00000+0 0 9990 2 52984 64.3020 314.6865 0010261 274.6780 85.1972 2.13102128 30591 METEOSAT-12 (MTG-I1) 1 54743U 22170C 26163.26471271 .00000007 00000+0 00000+0 0 9998 2 54743 0.7326 22.0862 0003206 72.1781 261.2060 1.00271774 12920 METEOR-M2 3 1 57166U 23091A 26163.88273304 -.00000003 00000+0 17414-4 0 9997 2 57166 98.6090 218.9490 0004118 166.5688 193.5601 14.24046396153908 COSMOS 2569 (703K) 1 57517U 23114A 26163.09158098 -.00000032 00000+0 00000+0 0 9998 2 57517 65.2993 72.7923 0010863 296.9051 63.0020 2.13103652 22155 METEOR-M2 4 1 59051U 24039A 26163.89256810 -.00000006 00000+0 16973-4 0 9991 2 59051 98.7015 123.2446 0007054 173.0118 187.1160 14.22429124118657 GSAT0225 (GALILEO 29) 1 59598U 24079A 26160.48196544 .00000021 00000+0 00000+0 0 9995 2 59598 55.1155 101.2960 0001734 292.0981 244.7042 1.70474016 13181 GSAT0227 (GALILEO 30) 1 59600U 24079C 26159.20410498 .00000025 00000+0 00000+0 0 9998 2 59600 55.1096 101.3297 0001920 44.5115 315.4782 1.70474042 13219 GSAT0232 (GALILEO 32) 1 61182U 24167A 26162.43445970 .00000057 00000+0 00000+0 0 9991 2 61182 55.1864 221.4720 0006122 225.5237 172.5856 1.70474248 10781 GSAT0226 (GALILEO 31) 1 61183U 24167B 26162.86255495 .00000058 00000+0 00000+0 0 9991 2 61183 55.1853 221.4675 0002850 223.7122 168.4672 1.70474203 10765 GSAT0233 (GALILEO 33) 1 67160U 25302A 26157.66258742 .00000023 00000+0 00000+0 0 9996 2 67160 54.3305 102.4316 0001324 236.8649 300.4651 1.70474269 2941 GSAT0234 (GALILEO 34) 1 67162U 25302C 26162.65313341 .00000008 00000+0 00000+0 0 9993 2 67162 54.3333 102.2882 0003065 306.8400 233.4168 1.70474004 3088